User: anonymous   Login
Location: Unspecified
(0.0000°N, 0.0000°E)
Time: 20:22:51
(UTC+00:00)
Language:

TIANWANG 1B (TW-1B) - Orbit

View from above orbital plane
View from above orbital plane
View from above satellite
View from above satellite

Ground track
Ground track

The orbit data is extracted from the following two-line orbital elements,

1 40927U 15051C   18351.53872605  .00006548  00000-0  11540-3 0  9995
2 40927  97.1678  32.8501 0008785 352.7912 113.2784 15.50719381181600
Epoch (UTC): 17 December 2018 12:55:45
Eccentricity: 0.0008785
inclination: 97.1678°
perigee height: 408 km
apogee height: 420 km
right ascension of ascending node: 32.8501°
argument of perigee: 352.7912°
revolutions per day: 15.50719381
mean anomaly at epoch: 113.2784°
orbit number at epoch: 18160

The dashed part of the orbit path shows where the satellite is in the earth's shadow,  

DLR